#timestamp,LO_Frequency,Hit,Temp,Hum 
1493820015.4,286047079.1,Y,0.0,0.0
1493820035.3,286047010.9,N,0.0,0.0
1493820055.2,286047000.6,N,0.0,0.0
1493820075.0,286046996.8,N,0.0,0.0
1493820076.0,286046996.8,N,0.0,0.0
1493820095.8,286047003.9,N,0.0,0.0
1493820115.6,286047009.5,N,0.0,0.0
1493820135.4,286047011.2,N,0.0,0.0
1493820155.3,286047007.4,N,0.0,0.0
1493820175.1,286047017.8,N,0.0,0.0
1493820195.8,286047016.7,N,0.0,0.0
1493820215.7,286047024.6,N,0.0,0.0
1493820235.5,286047016.1,N,0.0,0.0
1493820255.3,286047023.8,N,0.0,0.0
1493820275.2,286047018.1,N,0.0,0.0
1493820295.9,286047017.5,N,0.0,0.0
1493820315.7,286047022.6,N,0.0,0.0
1493820335.6,286047016.7,N,0.0,0.0
1493820355.4,286047008.1,N,0.0,0.0
1493820375.2,286047037.6,N,0.0,0.0
1493820395.1,286047019.2,N,0.0,0.0
1493820396.0,286047019.2,N,0.0,0.0
1493820415.8,286047018.9,N,0.0,0.0
1493820435.6,286047021.9,N,0.0,0.0
1493820455.5,286047021.5,N,0.0,0.0
1493820475.3,286047017.3,N,0.0,0.0
1493820495.1,286047019.6,N,0.0,0.0
1493820515.9,286047021.8,N,0.0,0.0
1493820535.7,286047023.5,N,0.0,0.0
1493820555.5,286047020.9,N,0.0,0.0
1493820575.3,286047021.6,N,0.0,0.0
1493820595.2,286047020.2,N,0.0,0.0
1493820615.0,286047019.4,N,0.0,0.0
1493820615.9,286047019.4,N,0.0,0.0
1493820635.8,286047023.0,N,0.0,0.0
1493820655.6,286047022.1,N,0.0,0.0
1493820675.4,286047022.1,N,0.0,0.0
1493820695.2,286047020.5,N,0.0,0.0
1493820715.1,286047023.6,N,0.0,0.0
1493820716.0,286047023.6,N,0.0,0.0
1493820735.8,286047019.9,N,0.0,0.0
1493820755.6,286047017.8,N,0.0,0.0
1493820775.5,286047021.5,N,0.0,0.0
1493820795.3,286047020.9,N,0.0,0.0
1493820815.1,286047021.4,N,0.0,0.0
1493820835.9,286047021.3,N,0.0,0.0
1493820855.7,286047021.1,N,0.0,0.0
1493820875.5,286047014.9,N,0.0,0.0
1493820895.4,286047021.2,N,0.0,0.0
1493820915.2,286047024.3,N,0.0,0.0
1493820935.0,286047022.9,N,0.0,0.0
1493820935.9,286047022.9,N,0.0,0.0
1493820955.8,286046992.1,N,0.0,0.0
1493820975.6,286047019.3,N,0.0,0.0
1493820995.4,286047022.0,N,0.0,0.0
1493821015.3,286047001.9,N,0.0,0.0
1493821035.1,286047030.7,N,0.0,0.0
1493821036.0,286047030.7,N,0.0,0.0
1493821055.8,286047017.4,N,0.0,0.0
1493821075.7,286047025.8,N,0.0,0.0
1493821095.5,286047024.7,N,0.0,0.0
1493821115.3,286047021.0,N,0.0,0.0
1493821135.2,286047021.8,N,0.0,0.0
1493821155.9,286047019.7,N,0.0,0.0
1493821175.7,286047022.5,N,0.0,0.0
1493821195.6,286047015.5,N,0.0,0.0
1493821215.4,286047015.4,N,0.0,0.0
1493821235.2,286047019.7,N,0.0,0.0
1493821255.1,286047014.1,N,0.0,0.0
1493821256.0,286047014.1,N,0.0,0.0
1493821275.8,286047024.0,N,0.0,0.0
1493821295.6,286047022.5,N,0.0,0.0
1493821315.5,286047023.5,N,0.0,0.0
1493821335.3,286047020.3,N,0.0,0.0
1493821355.1,286047023.7,N,0.0,0.0
1493821375.8,286047026.4,N,0.0,0.0
1493821395.7,286047026.5,N,0.0,0.0
1493821415.5,286047024.6,N,0.0,0.0
1493821435.3,286047023.0,N,0.0,0.0
1493821455.2,286047024.6,N,0.0,0.0
1493821475.0,286047024.4,N,0.0,0.0
1493821475.9,286047024.4,N,0.0,0.0
1493821495.7,286047024.7,N,0.0,0.0
1493821515.6,286047012.3,N,0.0,0.0
1493821535.4,286047027.1,N,0.0,0.0
1493821555.2,286047026.2,N,0.0,0.0
1493821575.1,286047018.0,N,0.0,0.0
1493821576.0,286047018.0,N,0.0,0.0
1493821595.8,286047021.2,N,0.0,0.0
1493821615.6,286047026.9,N,0.0,0.0
1493821635.5,286047020.2,N,0.0,0.0
1493821655.3,286047020.2,N,0.0,0.0
1493821675.1,286047019.3,N,0.0,0.0
1493821695.9,286047019.7,N,0.0,0.0
1493821715.7,286047020.2,N,0.0,0.0
1493821735.5,286047020.3,N,0.0,0.0
1493821755.4,286047022.7,Y,0.0,0.0
1493821775.2,286047007.1,N,0.0,0.0
1493821795.0,286047021.2,Y,0.0,0.0
1493821796.0,286047021.2,Y,0.0,0.0
1493821815.8,286046974.6,Y,0.0,0.0
1493821835.6,286046955.6,Y,0.0,0.0
1493821855.5,286046936.1,Y,0.0,0.0
1493821875.3,286046919.5,Y,0.0,0.0
1493821895.2,286046900.3,Y,0.0,0.0
1493821915.9,286046882.9,Y,0.0,0.0
1493821935.8,286046857.8,Y,0.0,0.0
1493821955.6,286046841.5,Y,0.0,0.0
1493821975.4,286046831.0,Y,0.0,0.0
1493821995.3,286046819.6,Y,0.0,0.0
1493822015.1,286046809.3,Y,0.0,0.0
1493822035.9,286046801.5,Y,0.0,0.0
1493822055.7,286046797.5,Y,0.0,0.0
1493822075.5,286046791.9,Y,0.0,0.0
1493822095.4,286046791.1,Y,0.0,0.0
1493822115.2,286046791.6,Y,0.0,0.0
1493822135.1,286046790.4,Y,0.0,0.0
1493822136.0,286046790.4,Y,0.0,0.0
1493822155.8,286046800.3,N,0.0,0.0
1493822175.6,286046801.4,N,0.0,0.0
1493822195.5,286046801.5,N,0.0,0.0
1493822215.3,286046801.3,N,0.0,0.0
1493822235.1,286046799.8,N,0.0,0.0
1493822255.9,286046802.1,N,0.0,0.0
1493822275.7,286046800.4,N,0.0,0.0
1493822295.5,286046801.0,N,0.0,0.0
1493822315.4,286046800.4,N,0.0,0.0
1493822335.2,286046801.5,N,0.0,0.0
1493822355.0,286046802.8,N,0.0,0.0
1493822355.9,286046802.8,N,0.0,0.0
1493822375.8,286046802.6,N,0.0,0.0
1493822395.6,286046799.7,N,0.0,0.0
1493822415.4,286046801.9,N,0.0,0.0
1493822435.2,286046802.4,N,0.0,0.0
1493822455.1,286046801.6,N,0.0,0.0
1493822456.0,286046801.6,N,0.0,0.0
1493822475.8,286046802.2,N,0.0,0.0
1493822495.7,286046799.8,N,0.0,0.0
1493822515.5,286046803.6,N,0.0,0.0
1493822535.3,286046803.5,N,0.0,0.0
1493822555.1,286046805.6,N,0.0,0.0
1493822575.9,286046805.6,N,0.0,0.0
1493822595.7,286046801.8,N,0.0,0.0
1493822615.5,286046803.4,N,0.0,0.0
1493822635.4,286046804.9,N,0.0,0.0
1493822655.2,286046806.0,N,0.0,0.0
1493822675.0,286046805.0,N,0.0,0.0
1493822675.9,286046805.0,N,0.0,0.0
1493822695.8,286046805.4,N,0.0,0.0
1493822715.6,286046805.4,N,0.0,0.0
1493822735.4,286046803.0,N,0.0,0.0
1493822755.3,286046757.1,N,0.0,0.0
1493822775.1,286046755.3,N,0.0,0.0
1493822795.8,286046756.1,N,0.0,0.0
1493822815.7,286046753.5,N,0.0,0.0
1493822835.5,286046754.0,N,0.0,0.0
1493822855.3,286046754.3,N,0.0,0.0
1493822875.2,286046754.7,N,0.0,0.0
1493822895.9,286046754.7,N,0.0,0.0
1493822915.7,286046754.4,N,0.0,0.0
1493822935.6,286046752.4,N,0.0,0.0
1493822955.4,286046753.0,N,0.0,0.0
1493822975.2,286046750.6,N,0.0,0.0
1493822995.0,286046753.2,N,0.0,0.0
1493822996.0,286046753.2,N,0.0,0.0
1493823015.8,286046752.7,N,0.0,0.0
1493823035.6,286046753.2,N,0.0,0.0
1493823055.4,286046750.1,N,0.0,0.0
1493823075.3,286046752.3,N,0.0,0.0
1493823095.1,286046750.6,N,0.0,0.0
1493823115.8,286046750.7,N,0.0,0.0
1493823135.7,286046751.4,N,0.0,0.0
1493823155.5,286046753.2,N,0.0,0.0
1493823175.3,286046750.9,N,0.0,0.0
1493823195.2,286046751.6,N,0.0,0.0
1493823215.0,286046749.1,N,0.0,0.0
1493823215.9,286046749.1,N,0.0,0.0
1493823235.7,286046746.9,N,0.0,0.0
1493823255.6,286046747.5,N,0.0,0.0
1493823275.4,286046745.6,N,0.0,0.0
1493823295.2,286046745.7,N,0.0,0.0
1493823315.1,286046748.1,N,0.0,0.0
1493823316.0,286046748.1,N,0.0,0.0
1493823335.8,286046748.2,N,0.0,0.0
1493823355.6,286046748.4,N,0.0,0.0
1493823375.5,286046843.1,N,0.0,0.0
1493823395.3,286046843.1,N,0.0,0.0
1493823415.1,286046841.7,N,0.0,0.0
1493823435.9,286046844.1,N,0.0,0.0
1493823455.7,286046841.5,N,0.0,0.0
1493823475.5,286046841.6,N,0.0,0.0
1493823495.4,286046833.6,N,0.0,0.0
1493823515.2,286046835.8,N,0.0,0.0
1493823535.0,286046831.9,N,0.0,0.0
1493823535.9,286046831.9,N,0.0,0.0
1493823555.8,286046832.0,N,0.0,0.0
1493823575.6,286046833.5,N,0.0,0.0
1493823595.4,286046844.6,N,0.0,0.0
